[Date Prev][Date Next][Thread Prev][Thread Next] - [Date Index][Thread Index][Author Index]
2 Line ISS Keps 8-26
- Subject: [sarex] 2 Line ISS Keps 8-26
- From: "Dave Larsen PhD" <doc@xxxxxxxxxxx>
- Date: Sun, 26 Aug 2001 08:14:18 -0700
ISS
1 25544U 98067A 01238.42039043 .00025861 00000-0 35302-3 0 3845
2 25544 51.6400 94.9333 0008375 38.4351 21.5064 15.57267733158048
----
Via the sarex mailing list at AMSAT.ORG courtesy of AMSAT-NA.
To unsubscribe, send "unsubscribe sarex" to Majordomo@amsat.org
AMSAT Home